TimeCDT,TemperatureF,Dew PointF,Humidity,Sea Level PressureIn,VisibilityMPH,Wind Direction,Wind SpeedMPH,Gust SpeedMPH,PrecipitationIn,Events,Conditions,WindDirDegrees,DateUTC
12:52 AM,33.8,30.2,87,30.31,9.0,NNW,13.8,-,0.00,,Overcast,330,2012-10-06 05:52:00
12:56 AM,33.1,30.9,92,30.36,10.0,NNW,13.8,-,0.00,,Overcast,340,2012-10-06 05:56:00
1:39 AM,33.8,30.2,87,30.31,10.0,NNW,11.5,-,N/A,,Overcast,330,2012-10-06 06:39:00
1:56 AM,33.1,30.9,92,30.36,10.0,NNW,10.4,-,N/A,,Overcast,330,2012-10-06 06:56:00
2:45 AM,33.8,30.2,87,30.32,10.0,NNW,15.0,-,N/A,,Overcast,340,2012-10-06 07:45:00
2:56 AM,33.1,30.0,89,30.37,10.0,NNW,13.8,-,N/A,,Overcast,340,2012-10-06 07:56:00
3:56 AM,32.0,28.9,88,30.38,10.0,NNW,8.1,-,N/A,,Overcast,340,2012-10-06 08:56:00
4:19 AM,30.2,28.4,93,30.33,10.0,NNW,8.1,-,N/A,,Scattered Clouds,340,2012-10-06 09:19:00
4:56 AM,28.0,26.1,92,30.39,10.0,NNW,6.9,-,N/A,,Clear,340,2012-10-06 09:56:00
5:56 AM,27.0,24.1,89,30.40,10.0,NW,6.9,-,N/A,,Partly Cloudy,310,2012-10-06 10:56:00
6:29 AM,26.6,24.8,93,30.35,10.0,NW,5.8,-,N/A,,Mostly Cloudy,320,2012-10-06 11:29:00
6:56 AM,26.1,24.1,92,30.41,10.0,NW,4.6,-,N/A,,Overcast,310,2012-10-06 11:56:00
7:56 AM,27.0,24.1,89,30.42,10.0,NW,6.9,-,N/A,,Mostly Cloudy,310,2012-10-06 12:56:00
8:10 AM,28.4,24.8,86,30.36,10.0,NW,5.8,-,N/A,,Scattered Clouds,310,2012-10-06 13:10:00
8:48 AM,32.0,28.4,87,30.37,10.0,West,4.6,-,N/A,,Mostly Cloudy,280,2012-10-06 13:48:00
8:56 AM,32.0,28.0,85,30.43,10.0,WNW,5.8,-,N/A,,Mostly Cloudy,300,2012-10-06 13:56:00
9:56 AM,34.0,27.0,75,30.44,10.0,NW,8.1,-,N/A,,Mostly Cloudy,310,2012-10-06 14:56:00
10:33 AM,35.6,28.4,75,30.38,10.0,NW,11.5,-,N/A,,Scattered Clouds,310,2012-10-06 15:33:00
10:56 AM,37.0,28.0,70,30.43,10.0,NNW,9.2,-,N/A,,Partly Cloudy,330,2012-10-06 15:56:00
11:56 AM,39.9,28.0,63,30.42,10.0,NW,8.1,-,N/A,,Partly Cloudy,310,2012-10-06 16:56:00
12:56 PM,42.1,27.0,55,30.40,10.0,NW,6.9,-,N/A,,Partly Cloudy,320,2012-10-06 17:56:00
1:56 PM,43.0,24.1,47,30.37,10.0,WNW,11.5,18.4,N/A,,Clear,300,2012-10-06 18:56:00
2:56 PM,44.1,23.0,43,30.33,10.0,WNW,8.1,-,N/A,,Clear,300,2012-10-06 19:56:00
3:56 PM,46.0,21.9,39,30.31,10.0,WNW,8.1,-,N/A,,Clear,300,2012-10-06 20:56:00
4:56 PM,46.9,18.0,32,30.29,10.0,West,11.5,-,N/A,,Clear,280,2012-10-06 21:56:00
5:56 PM,45.0,17.1,33,30.27,10.0,West,9.2,-,N/A,,Clear,270,2012-10-06 22:56:00
6:56 PM,41.0,19.0,41,30.27,10.0,West,6.9,-,N/A,,Clear,270,2012-10-06 23:56:00
7:56 PM,37.0,19.9,50,30.26,10.0,SSW,4.6,-,N/A,,Clear,210,2012-10-07 00:56:00
8:56 PM,33.1,21.0,61,30.25,10.0,SSW,5.8,-,N/A,,Clear,210,2012-10-07 01:56:00
9:56 PM,33.1,21.0,61,30.22,10.0,SW,8.1,-,N/A,,Clear,220,2012-10-07 02:56:00
10:56 PM,33.1,21.0,61,30.21,10.0,SW,8.1,-,N/A,,Clear,230,2012-10-07 03:56:00
11:56 PM,33.1,21.0,61,30.19,10.0,SW,8.1,-,N/A,,Clear,230,2012-10-07 04:56:00